Tracking 27122 objects as of 25-Mar-2023
HD Live streaming from Space Station
objects crossing your sky now

STARLINK-4618

Track STARLINK-4618 now!
10-day predictions
STARLINK-4618 is classified as:


NORAD ID: 53735
Int'l Code: 2022-107AM
Perigee: 545.6 km
Apogee: 548.2 km
Inclination: 53.2 °
Period: 95.4 minutes
Semi major axis: 6917 km
RCS: Unknown
Launch date: September 5, 2022
Source: United States (US)
Launch site: AIR FORCE EASTERN TEST RANGE (AFETR)
Your satellite tracking list
Your tracking list is empty




NASA's NSSDC Master Catalog

Two Line Element Set (TLE):
1 53735U 22107AM  23083.70199825  .00001769  00000-0  12920-3 0  9992
2 53735  53.2186  76.6776 0001890  82.1290 277.9916 15.08842522 31258
Source of the keplerian elements: AFSPC